Regional Weather Roundup
Issued by NWS

Home | Current Version | Previous Version | Text Only | Print | Product List | Glossary Off
Versions: 1 2 3 4 5 6 7 8 9 10 11 12 13 14 15 16 17 18 19 20 21 22 23 24 25 26 27 28 29 30 31 32 33 34 35 36 37 38 39 40 41 42 43 44 45 46 47 48 49 50

000
ASUS43 KLSX 210359
RWRMO

WEATHER SUMMARY FOR MISSOURI
NATIONAL WEATHER SERVICE SPRINGFIELD MO
1100 PM CDT SAT SEP 20 2014

NOTE: "FAIR" INDICATES FEW OR NO CLOUDS BELOW 12,000 FEET WITH NO
       SIGNIFICANT WEATHER AND/OR OBSTRUCTIONS TO VISIBILITY.
       CURRENT SKY AND/OR WEATHER CONDITIONS ARE NOT AVAILABLE FOR
       CHILLICOTHE AND FARMINGTON.

MOZ001>031-035>038-043-044-053-054-210500-
...NORTHERN AND WESTERN MISSOURI...

CITY           SKY/WX    TMP DP  RH WIND       PRES   REMARKS
KANSAS CTY INT CLEAR     70  68  93 W7        29.99R
KANSAS C DTWN  CLEAR     74  69  85 SW6       29.98R
LEE`S SUMMIT   PTCLDY    71  69  93 SW5       30.00R
ST JOSEPH      CLEAR     68  66  93 N5        29.98R
KIRKSVILLE     CLEAR     72  70  93 SW5       29.93R FOG

$$
MOZ066>068-077>081-088>096-101>105-210500-
...SOUTHWEST MISSOURI...

CITY           SKY/WX    TMP DP  RH WIND       PRES   REMARKS
SPRINGFIELD    MOCLDY    71  67  87 SW6       30.02R
JOPLIN         CLOUDY    75  68  78 S7        30.01R

$$
MOZ032>034-039>042-045>050-055>058-069>072-210500-
...CENTRAL MISSOURI...

CITY           SKY/WX    TMP DP  RH WIND       PRES   REMARKS
COLUMBIA       CLEAR     74  70  87 SW9       29.95S
JEFFERSON CITY CLOUDY    73  69  87 CALM      29.94S
ROLLA          CLEAR     71  67  87 SW8       29.97S
SEDALIA        MOCLDY    75  70  84 SW8       29.97R
OSAGE BEACH    CLEAR     72  66  83 SW5       29.98S

$$
MOZ051-052-059>065-210500-
...EAST CENTRAL MISSOURI...

CITY           SKY/WX    TMP DP  RH WIND       PRES   REMARKS
ST LOUIS INTL  PTCLDY    77  67  71 SW7       29.93S
SPIRIT OF STL  CLEAR     70  67  90 W7        29.92S
ST CHARLES     CLEAR     67  65  93 CALM      29.90F

$$
MOZ072>076-082>087-097>100-106>115-210500-
...SOUTH CENTRAL AND SOUTHEAST MISSOURI...

CITY           SKY/WX    TMP DP  RH WIND       PRES   REMARKS
CAPE GIRARDEAU CLEAR     71  66  84 SW5       29.97S
FARMINGTON     CLEAR     72  66  83 CALM      30.01R
POPLAR BLUFF   CLEAR     71  66  84 SW6       29.97F
WEST PLAINS    CLEAR     73  66  78 SW5       30.04S

$$


USA.gov is the U.S. government's official web portal to all federal, state and local government web resources and services.